Total_Precipitation_Accumulation
0.14 0.31 0.73 1.20 1.84 2.48 2.23 1.52 0.89 0.68 0.61 0.69 0.77 0.75 0.84 0.97 1.38 2.14 2.24 1.99 1.69 1.87 2.29 2.89 3.13 2.79 2.55 2.49 2.42 2.47 2.62 2.59 2.62 2.67 2.70 2.80 3.03 3.21 3.33 3.30 3.04 2.90 2.85 2.73 2.90 3.03 2.94 2.85 2.69
0.24 0.55 0.97 1.45 2.20 2.45 1.94 1.65 0.85 0.64 0.60 0.63 0.68 0.72 0.78 0.71 0.71 1.21 1.97 1.82 1.53 1.67 1.95 2.42 2.92 2.73 2.41 2.41 2.42 2.54 2.59 2.52 2.51 2.59 2.76 2.93 3.15 3.27 3.21 3.00 2.83 2.80 2.69 2.57 2.63 2.85 2.76 2.53 2.49
0.37 0.70 1.04 1.49 1.58 1.57 1.32 1.09 0.69 0.60 0.57 0.69 0.72 0.68 0.70 0.96 0.93 1.31 1.67 1.48 1.53 1.65 1.89 2.49 2.90 2.80 2.58 2.48 2.52 2.47 2.40 2.37 2.51 2.68 2.86 3.10 3.13 3.17 3.01 2.83 2.70 2.59 2.39 2.39 2.48 2.73 2.68 2.49 2.47
0.44 0.76 1.01 1.08 0.96 0.83 0.71 0.60 0.46 0.54 0.50 0.59 0.70 0.69 0.83 0.99 0.95 1.27 1.46 1.47 1.51 1.69 1.93 2.37 2.68 2.66 2.56 2.39 2.36 2.44 2.49 2.51 2.67 2.66 2.78 2.97 2.94 3.05 2.93 2.67 2.54 2.34 2.15 2.15 2.36 2.65 2.71 2.54 2.47
0.55 0.86 1.07 0.87 0.72 0.65 0.55 0.46 0.42 0.51 0.51 0.62 0.74 0.92 1.19 1.20 1.04 1.32 1.48 1.45 1.43 1.53 1.80 2.06 2.48 2.66 2.59 2.47 2.55 2.62 2.59 2.61 2.67 2.59 2.59 2.60 2.64 2.75 2.61 2.43 2.40 2.25 1.99 1.96 2.38 2.66 2.61 2.36 2.31
0.59 0.85 0.78 0.60 0.59 0.52 0.49 0.39 0.36 0.45 0.53 0.62 0.80 1.10 1.58 1.67 1.43 1.37 1.36 1.25 1.35 1.49 1.68 1.90 2.29 2.56 2.67 2.62 2.68 2.66 2.64 2.71 2.64 2.54 2.48 2.37 2.23 2.36 2.31 2.17 2.28 2.20 2.06 2.21 2.54 2.65 2.46 2.31 2.34
0.65 0.78 0.54 0.43 0.49 0.47 0.42 0.34 0.39 0.38 0.51 0.73 0.91 1.21 1.77 2.15 1.78 1.43 1.41 1.44 1.59 1.59 1.67 2.00 2.28 2.33 2.40 2.71 2.78 2.75 2.75 2.83 2.76 2.67 2.47 2.28 2.07 2.05 2.00 2.06 2.18 2.18 2.27 2.46 2.68 2.68 2.52 2.37 2.50
0.34 0.43 0.42 0.37 0.31 0.38 0.39 0.32 0.35 0.40 0.48 0.64 0.84 1.15 1.80 1.84 1.58 1.51 1.74 1.85 2.03 1.92 1.79 1.96 2.13 2.07 2.06 2.31 2.70 2.80 2.65 2.61 2.65 2.75 2.50 2.45 2.33 2.16 2.12 2.10 2.15 2.27 2.42 2.73 2.87 2.84 2.71 2.44 2.50
0.21 0.33 0.32 0.25 0.22 0.30 0.29 0.29 0.34 0.36 0.42 0.63 0.81 1.07 1.41 1.36 1.32 1.40 2.00 2.21 2.27 2.13 2.07 2.01 1.91 1.86 1.92 2.02 2.41 2.67 2.75 2.70 2.77 2.89 2.68 2.62 2.65 2.36 2.42 2.38 2.60 2.69 2.72 3.07 3.29 3.33 3.03 2.81 2.90
0.18 0.21 0.16 0.13 0.13 0.20 0.25 0.31 0.32 0.38 0.58 0.97 1.28 1.32 1.27 1.28 1.42 1.64 2.11 2.11 2.27 2.34 2.15 2.14 2.06 1.89 1.78 1.86 2.23 2.60 2.43 2.55 2.86 2.98 2.74 2.71 2.93 2.97 2.44 2.74 3.24 3.43 3.48 3.68 3.88 3.85 3.26 2.83 2.73
0.12 0.14 0.10 0.10 0.13 0.18 0.21 0.30 0.34 0.41 0.86 1.32 1.76 1.59 1.39 1.50 1.63 1.90 2.32 2.55 2.53 2.65 2.43 2.37 2.22 1.95 1.71 1.91 1.90 2.21 2.48 2.73 2.87 2.75 2.69 2.75 2.63 2.56 2.57 3.01 3.58 3.76 3.71 3.77 3.96 3.77 3.15 3.11 3.23
0.08 0.10 0.12 0.14 0.17 0.19 0.26 0.31 0.40 0.51 0.80 0.92 1.14 1.40 1.53 1.71 1.94 2.22 2.40 2.63 2.66 2.76 2.65 2.72 2.44 2.29 2.31 2.12 1.82 1.79 1.90 2.14 2.46 2.75 2.73 2.84 3.13 3.14 3.10 3.35 3.43 3.67 3.83 4.14 3.81 3.82 3.62 3.56 3.41
0.08 0.10 0.13 0.14 0.16 0.19 0.25 0.28 0.42 0.57 0.64 0.68 0.98 1.35 1.70 1.83 2.12 2.43 2.54 2.82 2.73 2.72 2.76 2.87 2.72 2.55 2.61 2.34 2.07 1.86 2.01 2.05 2.21 2.50 2.78 2.90 3.33 3.63 3.57 3.52 3.52 3.47 3.39 3.53 3.57 3.45 3.79 3.96 3.53
0.06 0.09 0.10 0.12 0.17 0.21 0.24 0.30 0.43 0.61 0.70 0.85 1.07 1.35 1.68 2.00 2.21 2.37 2.80 2.96 3.03 2.97 3.05 2.90 2.88 2.84 2.80 2.69 2.62 2.55 2.30 2.43 2.42 2.52 2.60 2.83 3.34 3.79 3.87 3.70 3.55 3.31 3.19 3.26 3.39 3.51 3.96 3.94 3.75
0.09 0.14 0.15 0.17 0.22 0.23 0.29 0.52 0.66 0.78 0.82 0.95 1.13 1.27 1.62 2.15 2.39 2.43 2.77 2.93 2.88 3.29 3.39 3.41 3.36 3.48 3.43 3.25 3.12 2.91 2.72 2.61 2.68 2.90 3.01 3.01 3.21 3.58 3.54 3.30 3.13 3.09 3.15 3.35 3.38 3.58 3.76 3.47 3.51
0.11 0.25 0.31 0.28 0.27 0.25 0.37 0.79 0.86 0.94 0.92 1.08 1.22 1.38 1.69 2.00 2.33 2.47 2.76 2.97 3.06 3.48 3.77 4.05 3.88 3.91 3.74 3.73 3.70 3.40 3.14 3.00 2.89 2.93 3.06 2.90 2.87 3.03 3.33 3.10 2.97 3.24 3.25 3.38 3.69 3.87 3.77 3.75 3.79
0.16 0.23 0.27 0.28 0.24 0.24 0.35 0.68 0.82 0.98 1.18 1.34 1.45 1.58 1.64 1.93 2.25 2.59 2.85 3.19 3.48 3.85 4.23 4.68 4.60 4.36 4.05 4.09 4.07 3.86 3.69 3.39 3.03 2.88 2.86 2.74 2.74 2.90 3.25 3.27 3.37 3.38 3.50 3.56 3.37 3.82 3.89 3.85 3.88
0.17 0.20 0.24 0.27 0.23 0.25 0.45 0.71 0.82 1.02 1.29 1.32 1.54 1.69 1.76 1.85 2.30 2.74 2.94 3.33 3.79 4.32 4.77 4.74 4.71 4.88 4.73 4.57 4.44 4.13 3.64 3.20 3.05 3.03 2.88 2.76 2.85 2.97 3.40 3.27 3.26 3.31 3.54 3.65 3.60 3.77 3.83 3.59 3.59
0.11 0.16 0.22 0.26 0.23 0.28 0.45 0.73 1.04 1.20 1.50 1.41 1.41 1.56 1.68 1.80 2.11 2.55 2.85 3.37 3.96 4.40 4.82 5.02 5.10 4.98 4.82 4.46 4.16 3.91 3.66 3.44 3.19 3.00 2.91 2.84 2.78 2.99 3.46 3.23 3.52 3.45 3.48 3.54 3.60 3.76 3.69 3.40 3.59
0.12 0.17 0.21 0.26 0.26 0.35 0.54 0.79 1.13 1.20 1.28 1.29 1.19 1.25 1.43 1.77 2.04 2.56 2.88 3.09 3.50 4.02 4.50 4.83 5.02 4.91 4.53 4.18 4.03 3.95 3.91 3.50 3.22 3.20 3.36 3.18 3.18 3.21 3.24 3.48 3.45 3.50 3.67 3.65 3.63 3.77 3.54 3.18 3.47
0.16 0.18 0.21 0.23 0.26 0.46 0.62 1.12 1.38 1.26 1.27 1.25 1.18 1.25 1.42 1.86 2.32 2.61 2.81 2.95 3.19 3.59 3.90 4.01 4.20 4.17 4.02 4.06 4.09 4.06 4.10 3.69 3.63 3.64 3.66 3.44 3.44 3.46 3.48 3.46 3.40 3.43 3.25 3.35 3.44 3.46 3.47 3.39 3.30
0.19 0.16 0.16 0.20 0.30 0.57 0.68 1.40 1.80 1.52 1.43 1.51 1.47 1.42 1.68 1.97 2.02 2.22 2.50 2.77 2.94 3.18 3.50 3.71 3.78 3.74 3.67 3.79 3.86 3.77 3.59 3.48 3.65 3.93 3.86 3.59 3.39 3.27 3.11 3.06 3.23 3.25 3.04 3.13 2.80 2.97 3.16 3.16 3.00
0.15 0.16 0.19 0.25 0.34 0.55 0.72 1.13 1.68 1.61 1.77 1.73 1.56 1.61 1.88 1.86 1.76 1.87 2.07 2.39 2.51 2.84 3.12 3.32 3.58 3.67 3.62 3.71 3.70 3.74 3.57 3.56 3.62 3.64 3.69 3.50 3.32 3.01 2.68 2.72 2.94 2.92 2.84 2.76 2.67 2.87 2.70 2.61 2.68
0.15 0.20 0.30 0.39 0.56 0.96 0.78 0.91 1.49 1.58 1.51 1.51 1.48 1.43 1.61 1.57 1.54 1.76 1.93 2.23 2.38 2.51 2.65 2.76 2.98 3.25 3.43 3.47 3.45 3.50 3.46 3.45 3.40 3.39 3.29 3.09 2.94 2.75 2.44 2.34 2.55 2.68 2.74 2.71 2.68 2.74 2.61 2.63 2.76
0.16 0.30 0.74 1.12 1.31 1.30 0.70 0.83 1.35 1.26 1.18 1.19 1.30 1.33 1.34 1.29 1.28 1.50 1.66 1.84 2.04 2.15 2.27 2.42 2.71 3.05 3.14 3.10 3.05 3.17 3.26 3.27 3.20 3.19 3.05 2.84 2.61 2.40 2.34 2.36 2.50 2.54 2.60 2.48 2.53 2.58 2.60 2.77 2.84
0.19 0.26 0.67 0.99 1.09 1.07 0.88 1.28 1.68 1.27 1.09 1.12 1.22 1.21 1.16 1.08 1.04 1.20 1.47 1.77 1.93 1.91 1.98 2.14 2.45 2.72 2.76 2.69 2.83 3.10 3.18 3.21 3.13 3.17 2.87 2.61 2.41 2.36 2.47 2.47 2.35 2.30 2.39 2.24 2.52 2.45 2.51 2.76 2.83
0.19 0.21 0.31 0.51 0.60 0.88 1.14 1.43 1.43 0.98 0.91 0.97 1.03 1.07 1.18 1.11 1.04 1.13 1.23 1.43 1.56 1.62 1.69 1.84 2.27 2.55 2.64 2.72 2.85 2.99 3.12 3.08 3.04 2.95 2.68 2.42 2.44 2.40 2.56 2.55 2.47 2.34 2.39 2.47 2.74 2.69 2.63 2.87 2.86
0.18 0.22 0.28 0.40 0.66 1.01 1.22 1.50 1.61 1.14 0.92 0.70 0.68 0.79 0.85 0.86 0.87 0.95 1.00 1.12 1.22 1.40 1.67 1.86 2.02 2.35 2.46 2.57 2.74 2.77 3.01 2.91 2.75 2.72 2.50 2.26 2.18 2.28 2.51 2.67 2.56 2.41 2.42 2.59 2.77 2.75 2.90 3.09 3.13
0.21 0.23 0.27 0.32 0.45 0.77 1.29 1.48 1.12 0.92 0.77 0.74 0.72 0.81 0.85 0.81 0.77 0.82 0.96 1.09 1.19 1.33 1.55 1.69 1.74 1.98 2.18 2.31 2.51 2.51 2.51 2.58 2.67 2.53 2.27 2.19 2.24 2.35 2.42 2.53 2.52 2.43 2.45 2.58 2.65 2.62 2.94 3.10 3.12
0.21 0.19 0.24 0.33 0.34 0.45 0.80 1.13 0.80 0.79 0.81 0.80 0.80 0.87 0.95 0.92 0.84 0.89 1.05 1.18 1.26 1.40 1.45 1.50 1.59 1.80 2.01 2.21 2.43 2.50 2.49 2.55 2.60 2.46 2.27 2.27 2.35 2.36 2.29 2.35 2.36 2.23 2.25 2.48 2.50 2.56 2.87 3.02 2.90